Вернуться в каталог

STARLINK-37671

АктивенСвязьVLEO
NORAD 69206·PAYLOAD·🇺🇸 United States

Запущен May 25, 2026 с Cape Canaveral Space Force Station

Loading…

Ближайшие Пролёты (ближайшие 24 часа)

TLE

СвежийSource: CelesTrak SupGP

Эпоха: Sep 14, 2026, 23:07 UTC

1 69206C 26114AA  26257.96368056 -.00024147  00000+0 -71345-3 0  2571
2 69206  53.1570 139.3746 0001347  82.1656 118.9739 15.34402117    19

Отслеживайте STARLINK-37671 в реальном времени с AllMySat

Download on the App Store